Weather in Novy

Russia / Tomsk District     57°06′31″N   86°11′45″E
temp.,
°C
wind,
m/s
gust,
m/s
humid.,
%
clouds,
%
prec.,
mm/h
press.,
hPa
HPBL,
m
19 may, wed
wed1901:00+7n3691100 0.0 1009141
04:00+5ene387499 0.0 1009152
07:00+5nne36685 0.0 1010195
10:00+9nne564988 0.0 1010767
13:00+11n674191 0.0 10101997
16:00+11n873576 0.0 10102456
19:00+9n674293 0.0 10112334
22:00+4nnw38555 0.0 1012163
20 may, thu
thu2001:00+2nnw35625 0.0 1013109
04:000nnw367097 0.0 1013126
07:00+2n596294 0.0 1014555
10:00+4nne5750100 0.4 10151788
13:00+7nnw6636100 0.5 10152620
16:00+7nnw674984 0.3 10161749
19:00+8nw474685 0.9 10171987
22:00+5ne2262100 0.1 101833
21 may, fri
fri2101:00+3nw336679 0.1 101947
04:00+1nw36715 0.0 102089
07:00+3nnw366356 0.0 1022191
10:00+9nw344552 0.0 1023672
13:00+12wnw453599 0.0 10231920
16:00+13wnw453293 0.0 10232445
19:00+12wnw4643100 0.0 1023695
22:00+8wsw2354100 0.0 102418
22 may, sat
sat2201:00+6sw375376 0.0 102492
04:00+6sw3958100 0.0 1024164
07:00+8wsw41161100 0.0 1025312
10:00+10w685675 0.0 10251142
13:00+12wsw7960100 0.0 10241467
16:00+9sw61164100 0.0 1024824
19:00+10wsw4961100 0.0 1023477
22:00+9wsw3963100 0.0 1023330
23 may, sun
sun2301:00+8sw3874100 0.0 1023226
04:00+8sw387962 0.0 1023217
07:00+9sw410765 0.0 1023269
10:00+15wsw68555 0.0 1022610
13:00+20wsw684726 0.0 10201139
16:00+23wsw684415 0.0 10191670
19:00+21sw510515 0.0 1018551
22:00+16ssw5126796 0.0 1017234